Starlink 31476

operational
NORAD ID: 59523 Int'l Des: 2024-073 Owner: SPXS Country: US Constellation: starlink
LEOCIRCULAR

Über Starlink 31476

Beschreibung wird geladen...

Live-Position

3D-Globus wird geladen...

Nächste Überflüge

Höhenverlauf

Altitude vs Time

uPlot chart will show altitude changes over time

Zweizeiliger Elementsatz

1 59523U 24073N 25354.17802747 .00000617 00000-0 31934-4 0 9993
2 59523 43.0009 47.2079 0000965 270.9982 89.0759 15.27576458 94010
Epoch: 20. Dez. 2025 • Age: 18 hours

Aktueller Status

Höhe 486.8 km
Geschwindigkeit 7.63 km/s
Subsatellitenpunkt 42.78°N, 65.6°E
Startdatum 17. Apr. 2024
Alter 1.6 years
Typ internet

Technische Details

Klassifizierung Payload
Masse 730.00 kg
Trockenmasse 700.00 kg
Gesamtmasse 730.00 kg
Länge 0.30 m
Durchmesser 4.10 m
Spannweite 29.00 m
Form Box + pan
Hersteller SPXS
Bus-Typ Starlink V2M
Phasenstatus In Orbit
Besitzer/Staat SPXS/US

Große Konstellationen

Loading constellations...